Location: San Antonio
(29.4240°N, 98.4930°W)
Time: 09:38:16
(UTC-05:00)

Envisat - Pass Details

Date: 20 June 2024
Orbit: 762 x 764 km, 98.3° (Epoch: 12 July)

Event Time Altitude Azimuth Distance (km) Brightness Sun altitude
Rises 04:00:34 0° 25° (NNE) 3,226 7.5 -26.7°
Reaches altitude 10° 04:03:08 10° 36° (NE) 2,296 6.5 -26.4°
Maximum altitude 04:07:35 31° 98° (E) 1,322 4.4 -25.8°
Enters shadow 04:09:39 23° 138° (SE) 1,585 4.5 -25.5°
